[[{"header":{"parameterUnit":"m.s-1","parameterCategory":1,"la1":30.2991,"la2":30.254,"lo1":-89.0895,"lo2":-89.0444,"dy":0.0017,"dx":0.0017,"nx":28,"ny":28,"refTime":"2024-04-23T21:00:00:Z","depth":0,"parameterNumber":2,"parameterNumberName":"U-component_of_WINDS"},"data":[0,0,0,0,0,0,0,0,0,0,0,0,0,0,0,0,0,0,0,0,0,0,0,0,0,0,0,0,0,0,0,0,0,0,0,0,0,0,0,0,0,0,0,0,0,0,0,0,0,0,0,0,0,0,0,0,0,0,0.6665,0.6666,0,0.6777,0.6778,0.6779,0.6823,0.6823,0.6822,0.6822,0.6936,0.694,0.6943,0,0,0,0,0,0,0,0,0,0,0,0,0,0.6487,0.649,0.6664,0.6666,0.6667,0.6776,0.6778,0.678,0.6823,0.6823,0.6822,0.6822,0.6935,0.6939,0.6943,0,0,0,0,0,0,0,0,0,0,0,0,0,0.6578,0.6491,0.6664,0.6702,0.6707,0.6776,0.6778,0.678,0.6823,0.6823,0.6822,0.6822,0.6934,0.6939,0.6944,0.6984,0,0,0.6959,0.6961,0,0,0,0,0,0,0,0,0.6573,0.6584,0.6695,0.67,0.6705,0.6785,0.6757,0.6848,0.6823,0.6779,0.6822,0.6821,0.6886,0.6895,0.6917,0.6989,0.6994,0.6959,0.6963,0.6965,0.6966,0,0,0,0,0,0,0,0.6566,0.658,0.6709,0.6697,0.6703,0.6713,0.6726,0.6775,0.6834,0.6783,0.6786,0.6799,0.6889,0.6912,0.692,0.6996,0.6959,0.6964,0.6967,0.6969,0.7105,0.7106,0,0,0,0,0,0,0.6554,0.6574,0.6705,0.6712,0.6636,0.6717,0.6731,0.676,0.6833,0.6844,0.6799,0.68,0.6904,0.6914,0.6925,0.6976,0.6965,0.6969,0.6972,0.7105,0.7105,0.7106,0,0,0,0,0,0,0.655,0.6565,0.6701,0.6644,0.6662,0.672,0.6753,0.6762,0.6786,0.6846,0.6856,0.6812,0.6904,0.6918,0.6969,0.698,0.6972,0.6976,0.7104,0.7105,0.7106,0.7079,0,0,0,0,0,0,0.6545,0.6563,0.6579,0.6644,0.6665,0.6743,0.6754,0.6765,0.6794,0.6797,0.6861,0.6871,0.6905,0.6961,0.6974,0.6987,0.698,0.7103,0.7104,0.7105,0.7079,0.7079,0.7078,0,0,0,0,0,0.6538,0.6567,0.658,0.6596,0.6686,0.6744,0.6756,0.6794,0.6795,0.6812,0.685,0.6869,0.6977,0.6966,0.698,0.6996,0.7102,0.7104,0.7105,0.7079,0.7079,0.7078,0,0,0,0,0,0,0.6502,0.6577,0.6591,0.6643,0.6686,0.6751,0.6773,0.6793,0.6837,0.6838,0.6883,0.6897,0.6944,0.6975,0.6961,0.7038,0.7041,0.7045,0.7016,0.7016,0.7016,0.7008,0.6984,0,0,0,0,0,0.65,0.6541,0.6604,0.6643,0.6664,0.6714,0.6741,0.6767,0.6814,0.6832,0.6875,0.692,0.6964,0.6992,0.7036,0.7083,0.7098,0.7101,0.7101,0.71,0.7104,0.7131,0.7133,0.7111,0.7111,0.7111,0,0,0.6497,0.6542,0.6565,0.6637,0.6674,0.6714,0.673,0.6772,0.6803,0.6839,0.689,0.6922,0.6975,0.7025,0.7048,0.7052,0.7113,0.7102,0.7101,0.7105,0.7132,0.7135,0.7136,0.7112,0.7111,0.7111,0,0,0.6511,0.655,0.6586,0.6623,0.6679,0.6712,0.6721,0.6782,0.6805,0.6857,0.6885,0.6922,0.6997,0.7033,0.7062,0.7089,0.7108,0.7102,0.7101,0.7127,0.7129,0.7131,0.714,0.7143,0.7105,0.7105,0.7105,0,0.6499,0.6562,0.6602,0.6644,0.6674,0.6709,0.6746,0.6779,0.6846,0.6866,0.6869,0.6964,0.7002,0.706,0.7067,0.7089,0.71,0.7095,0.7125,0.7127,0.713,0.7139,0.7143,0.7104,0.7104,0.7104,0.7104,0,0.6545,0.6588,0.661,0.6674,0.6707,0.6746,0.6792,0.6821,0.6843,0.6876,0.6928,0.6975,0.7029,0.7045,0.7067,0.7106,0.7106,0.7116,0.7121,0.713,0.714,0.7144,0.7102,0.7103,0.7103,0.7103,0,0,0.654,0.6625,0.6633,0.6662,0.6726,0.676,0.68,0.6853,0.6876,0.6921,0.6956,0.7018,0.7028,0.706,0.7087,0.711,0.7128,0.7117,0.7119,0.7117,0.7173,0.7165,0.7168,0.7141,0.7142,0.7143,0.7168,0,0.6562,0.6636,0.6673,0.673,0.677,0.6804,0.6838,0.6881,0.6913,0.6951,0.6986,0.7029,0.7039,0.7059,0.7083,0.7121,0.714,0.7119,0.7173,0.7175,0.7159,0.7173,0.7165,0.7187,0.7173,0.7173,0.7174,0,0.6598,0.6643,0.6704,0.6763,0.6781,0.6812,0.6863,0.6899,0.6948,0.697,0.7005,0.7032,0.7075,0.7075,0.7135,0.712,0.7145,0.7166,0.7168,0.7175,0.7175,0.718,0.7195,0.7198,0.718,0.718,0.7179,0,0.6588,0.6663,0.671,0.6734,0.6804,0.6824,0.6855,0.6903,0.6932,0.6977,0.6996,0.7045,0.7072,0.7109,0.7147,0.7144,0.7203,0.7207,0.7222,0.7221,0.7233,0.7231,0.7252,0.7248,0.7248,0.7248,0.7248,0,0.6609,0.6645,0.6706,0.6734,0.6776,0.6818,0.6858,0.689,0.6933,0.6968,0.7,0.7032,0.7081,0.7119,0.715,0.7195,0.7206,0.7225,0.7232,0.7222,0.7219,0.7238,0.7238,0.7249,0.7249,0.7249,0.7249,0,0.6604,0.6647,0.6699,0.6761,0.6778,0.6805,0.6858,0.6887,0.692,0.6964,0.6976,0.7028,0.7075,0.7117,0.7179,0.72,0.7245,0.7255,0.7228,0.7232,0.7244,0.7243,0.7278,0.7284,0.7276,0.7276,0.7276,0,0.6615,0.6643,0.6708,0.6734,0.6764,0.6805,0.6835,0.6877,0.6907,0.6965,0.6986,0.7035,0.7077,0.7149,0.7193,0.724,0.7251,0.726,0.7258,0.7247,0.7251,0.7249,0.7251,0.7259,0.7259,0.7259,0.7259,0,0.6629,0.6648,0.669,0.6739,0.6774,0.6815,0.6857,0.6876,0.6926,0.6958,0.7006,0.7038,0.7101,0.7149,0.7202,0.7232,0.7254,0.7259,0.7265,0.7255,0.7238,0.7247,0.7227,0.7258,0.7258,0.7258,0.7258,0.7259,0.6632,0.6659,0.6709,0.6754,0.679,0.6828,0.6858,0.6895,0.6936,0.6991,0.7013,0.7062,0.711,0.7182,0.7213,0.7251,0.7255,0.7264,0.7266,0.7267,0.7265,0.7232,0.7261,0.7261,0.7261,0.7261,0.7261,0,0.6647,0.6681,0.6723,0.678,0.6816,0.6833,0.688,0.6909,0.6951,0.6994,0.7034,0.7089,0.7136,0.7182,0.7231,0.7253,0.7264,0.7265,0.7263,0.727,0.7259,0.7249,0.7255,0.7255,0.7255,0.7255,0.7255,0.7255,0.666,0.6706,0.6731,0.6795,0.6829,0.6877,0.6902,0.6937,0.6972,0.7031,0.707,0.71,0.7145,0.7197,0.7241,0.7253,0.727,0.7267,0.7282,0.7271,0.7271,0.7271,0.7262,0.727,0.727,0.729,0.729,0.7291]},{"header":{"parameterUnit":"m.s-1","parameterCategory":1,"la1":30.2991,"la2":30.254,"lo1":-89.0895,"lo2":-89.0444,"dy":0.0017,"dx":0.0017,"nx":28,"ny":28,"refTime":"2024-04-23T21:00:00:Z","depth":0,"parameterNumber":3,"parameterNumberName":"V-component_of_WINDS"},"data":[0,0,0,0,0,0,0,0,0,0,0,0,0,0,0,0,0,0,0,0,0,0,0,0,0,0,0,0,0,0,0,0,0,0,0,0,0,0,0,0,0,0,0,0,0,0,0,0,0,0,0,0,0,0,0,0,0,0,1.9838,1.9837,0,1.9804,1.9804,1.9804,1.9738,1.9736,1.9735,1.9734,1.9701,1.9702,1.9702,0,0,0,0,0,0,0,0,0,0,0,0,0,1.9846,1.9846,1.9838,1.9837,1.9837,1.9805,1.9804,1.9804,1.9738,1.9736,1.9735,1.9733,1.9701,1.9702,1.9702,0,0,0,0,0,0,0,0,0,0,0,0,0,1.9831,1.9846,1.9838,1.98,1.9796,1.9805,1.9804,1.9803,1.9738,1.9736,1.9734,1.9732,1.9701,1.9702,1.9702,1.9745,0,0,1.9704,1.9704,0,0,0,0,0,0,0,0,1.9832,1.983,1.9806,1.9803,1.9799,1.9773,1.9795,1.9784,1.9739,1.976,1.9734,1.9731,1.9727,1.9725,1.9723,1.9743,1.9742,1.9704,1.9704,1.9704,1.9705,0,0,0,0,0,0,0,1.9833,1.9832,1.9825,1.9806,1.9801,1.9785,1.9781,1.9793,1.9755,1.9758,1.9753,1.975,1.9725,1.9723,1.9722,1.9741,1.9704,1.9704,1.9705,1.9705,1.9795,1.9797,0,0,0,0,0,0,1.9839,1.9833,1.9826,1.9824,1.9811,1.9787,1.9782,1.9783,1.9755,1.9749,1.9752,1.9747,1.9723,1.9722,1.9721,1.9769,1.9704,1.9705,1.9705,1.9793,1.9795,1.9798,0,0,0,0,0,0,1.984,1.9839,1.9827,1.9827,1.9824,1.9789,1.9791,1.9784,1.9782,1.975,1.9743,1.9757,1.9721,1.972,1.9739,1.9767,1.9705,1.9706,1.9791,1.9794,1.9797,1.9866,0,0,0,0,0,0,1.984,1.984,1.9855,1.9828,1.9824,1.9846,1.9793,1.9784,1.9783,1.9777,1.9753,1.9747,1.972,1.9739,1.974,1.9767,1.9706,1.9788,1.9792,1.9796,1.9861,1.9871,1.988,0,0,0,0,0,1.9841,1.9876,1.9856,1.9856,1.9843,1.9848,1.9846,1.9813,1.9785,1.9801,1.978,1.9748,1.9764,1.9741,1.9742,1.9769,1.9786,1.9791,1.9795,1.9857,1.9869,1.988,0,0,0,0,0,0,1.9909,1.9872,1.9849,1.9877,1.9866,1.9836,1.9855,1.9827,1.9823,1.9818,1.9777,1.9773,1.9798,1.9785,1.9761,1.9809,1.977,1.9775,1.9817,1.9828,1.9837,1.984,1.9707,0,0,0,0,0,1.9927,1.9933,1.9901,1.9929,1.9924,1.9891,1.9892,1.9867,1.9854,1.9849,1.983,1.9819,1.9821,1.9824,1.9824,1.9859,1.9853,1.9878,1.9887,1.9895,1.99,1.9918,1.9929,1.9813,1.9813,1.9813,0,0,1.9965,1.9946,1.9952,1.9942,1.993,1.9938,1.9887,1.9898,1.9904,1.9851,1.9868,1.9854,1.9839,1.9866,1.9877,1.9856,1.9931,1.9901,1.9908,1.9908,1.9924,1.9935,1.9945,1.9816,1.9816,1.9815,0,0,2.0038,2.0024,2.0045,2.0035,2.0017,1.9995,2.0,1.9975,1.9963,1.9979,1.994,1.9946,1.9951,1.9942,1.9939,2.0008,1.9979,2.0009,2.0058,2.0076,2.0085,2.0093,2.0119,2.0128,2.0014,2.0015,2.0015,0,2.0087,2.0097,2.006,2.0074,2.0071,2.0022,2.0044,2.0036,2.002,2.002,1.9996,2.0001,1.9988,2.0013,2.003,2.0028,2.0033,2.0012,2.0087,2.0095,2.0101,2.0125,2.0135,2.0018,2.0018,2.0018,2.0017,0,2.0159,2.0167,2.0187,2.0172,2.0171,2.0189,2.0155,2.0159,2.0134,2.0114,2.0132,2.0114,2.011,2.0114,2.009,2.0135,2.0123,2.0094,2.0054,2.0117,2.0139,2.0148,2.0024,2.0023,2.0022,2.0021,0,0,2.0275,2.024,2.0248,2.024,2.0218,2.0223,2.0239,2.0234,2.0239,2.0229,2.0242,2.0247,2.022,2.0215,2.019,2.0206,2.0263,2.0175,2.0174,2.0192,2.0312,2.0335,2.0346,2.0243,2.0244,2.0246,2.0314,0,2.0344,2.0368,2.0335,2.0367,2.0374,2.0328,2.0342,2.033,2.0311,2.0315,2.0295,2.0299,2.0263,2.026,2.0273,2.0253,2.0287,2.0248,2.0255,2.0256,2.0261,2.0357,2.0381,2.0447,2.0322,2.0323,2.0324,0,2.0428,2.0422,2.0454,2.043,2.0431,2.0444,2.0438,2.0441,2.0427,2.0412,2.0407,2.0377,2.0391,2.0351,2.0371,2.0345,2.0346,2.0336,2.0338,2.0338,2.0295,2.0361,2.0467,2.0477,2.0337,2.0336,2.0335,0,2.051,2.051,2.053,2.0525,2.0497,2.0507,2.0495,2.0479,2.0478,2.0473,2.0472,2.0468,2.0466,2.0464,2.0434,2.0408,2.0457,2.0415,2.0446,2.0447,2.046,2.046,2.0568,2.0459,2.0459,2.0459,2.0458,0,2.0591,2.0613,2.0566,2.0579,2.0602,2.0564,2.0588,2.0572,2.0558,2.0566,2.0526,2.0535,2.0494,2.0499,2.0475,2.0495,2.0494,2.0484,2.0478,2.0488,2.049,2.0489,2.0484,2.0461,2.0461,2.046,2.046,0,2.0688,2.0657,2.0675,2.0647,2.064,2.0659,2.0634,2.0644,2.0623,2.0635,2.0635,2.0602,2.0606,2.0575,2.0573,2.0557,2.0588,2.0574,2.0593,2.0589,2.0623,2.0621,2.0735,2.0749,2.0631,2.0632,2.0633,0,2.0742,2.0757,2.073,2.0733,2.0723,2.0728,2.0727,2.069,2.0691,2.0675,2.0688,2.0688,2.0686,2.0694,2.067,2.0669,2.0654,2.0694,2.0654,2.0664,2.0656,2.0656,2.0657,2.0703,2.0705,2.0706,2.0707,0,2.0841,2.0825,2.0825,2.082,2.082,2.0814,2.0806,2.0811,2.077,2.0773,2.0776,2.0775,2.0772,2.0773,2.0767,2.0755,2.0725,2.072,2.0727,2.0739,2.075,2.0745,2.0618,2.0718,2.0717,2.0716,2.0715,2.0715,2.0919,2.0931,2.0913,2.0915,2.0904,2.0897,2.0906,2.0885,2.0887,2.0882,2.086,2.0867,2.0852,2.084,2.0831,2.0836,2.0817,2.0828,2.083,2.0834,2.084,2.0748,2.0835,2.0835,2.0834,2.0834,2.0834,0,2.1017,2.1003,2.1005,2.0994,2.0996,2.0966,2.0955,2.0958,2.0965,2.0953,2.0952,2.0955,2.0956,2.0932,2.0929,2.0938,2.0924,2.0939,2.0939,2.0937,2.0857,2.0852,2.095,2.095,2.095,2.095,2.095,2.095,2.1068,2.1087,2.1069,2.1082,2.1069,2.1075,2.1071,2.1065,2.1055,2.1061,2.1061,2.1045,2.1028,2.1024,2.1024,2.1017,2.1018,2.1038,2.1027,2.0953,2.0942,2.0931,2.0926,2.1038,2.1038,2.1105,2.1106,2.1106]}]]